Theta_e
307 308 308 308 308 308 308 308 307 304 303 304 305 306 306 306 305 312 313 308 308 304 303 309 312 314 321 324 326 328 331 331 329 327 326 324 324 324 326 327 329 335 338 338 339
307 307 308 308 308 308 307 306 307 307 307 308 307 306 306 307 312 312 310 307 307 306 312 311 313 315 321 325 328 329 332 331 329 328 327 325 325 325 326 328 330 335 334 334 338
307 307 307 307 307 306 305 306 306 306 309 310 308 306 306 309 316 315 308 310 309 307 310 313 313 315 317 322 325 330 333 330 330 329 328 326 325 325 325 328 330 333 335 334 335
306 306 307 307 307 303 304 306 306 305 307 306 306 306 306 313 313 312 308 308 308 310 310 313 315 315 316 318 323 327 328 330 330 330 330 329 326 325 326 326 329 332 335 335 334
306 306 306 306 306 303 304 306 306 306 306 307 305 305 313 315 312 310 309 311 312 311 311 311 316 317 317 317 319 323 325 327 327 328 329 330 329 328 328 327 327 328 332 333 333
305 305 305 305 304 303 305 306 307 307 306 307 306 309 316 314 309 310 311 311 312 312 312 311 311 314 317 318 318 320 322 323 325 327 328 330 330 330 331 329 329 327 328 330 332
305 305 304 301 302 304 305 305 305 305 306 307 307 313 316 311 310 311 312 311 312 312 313 312 312 311 315 318 318 319 319 320 321 324 326 328 329 330 330 330 331 331 331 332 333
304 304 304 301 301 304 305 305 305 305 305 307 307 315 315 309 309 310 310 311 311 311 312 312 311 312 312 312 314 317 319 319 320 321 323 325 329 328 328 329 330 330 331 331 333
302 301 302 302 300 303 305 306 306 305 307 308 315 314 314 309 310 308 309 310 310 311 311 311 312 312 312 311 311 313 318 320 319 320 321 322 327 327 328 329 331 331 331 330 331
304 303 301 302 300 304 305 309 310 312 314 314 312 315 313 310 309 308 310 309 310 311 312 313 314 314 313 312 311 312 314 316 319 320 320 321 323 324 325 327 329 330 331 331 332
303 304 302 302 300 304 308 312 315 317 312 311 311 310 310 309 309 309 309 309 311 312 312 313 314 315 314 313 314 313 312 313 316 318 319 320 322 322 324 325 327 328 330 331 332
303 304 304 304 301 305 309 312 311 311 312 311 310 310 309 309 310 310 309 309 311 311 311 311 312 313 313 313 312 312 313 313 314 315 319 321 321 322 323 324 325 326 328 329 329
303 305 303 305 301 308 310 311 310 310 313 312 310 310 310 309 310 310 310 310 310 310 310 310 311 311 311 311 312 312 312 313 314 315 317 320 321 322 322 323 324 325 326 327 328
303 302 303 302 308 310 312 310 310 310 315 312 311 311 309 310 311 309 309 310 309 310 310 310 310 310 310 310 311 312 311 311 312 313 316 319 322 322 322 323 323 324 325 325 326
304 303 303 302 311 312 311 311 310 311 321 310 310 309 310 310 310 310 309 309 310 309 310 310 310 310 311 311 311 312 312 312 312 313 313 315 320 320 322 323 323 324 324 325 325
304 304 304 306 311 311 311 311 311 319 317 310 310 310 311 312 311 310 310 310 310 309 311 311 313 312 311 312 311 313 313 313 312 312 315 315 317 320 321 323 323 323 323 324 325
304 306 308 310 313 310 311 312 318 317 311 311 310 311 311 312 310 310 311 310 310 310 312 311 311 312 312 312 313 314 315 314 312 313 314 314 318 318 320 321 321 321 323 324 323
305 307 310 312 311 311 312 316 317 313 312 312 311 311 312 311 311 311 311 311 310 311 311 312 313 313 311 311 313 314 314 313 313 314 314 313 315 318 319 320 320 321 321 321 322
307 312 313 313 311 310 314 316 315 312 310 312 312 312 312 311 311 311 311 310 310 310 311 312 312 311 311 313 313 315 316 314 311 312 315 316 316 316 319 319 320 320 320 322 323
308 312 314 311 312 311 316 314 311 310 311 311 313 311 312 311 311 311 311 310 310 310 311 312 316 311 311 314 314 316 315 317 314 315 315 315 316 317 317 319 319 320 321 323 324
310 313 311 309 309 314 316 311 310 309 310 312 312 312 312 312 312 311 311 310 311 311 311 312 314 313 311 313 315 314 315 314 317 315 316 318 317 317 318 318 320 321 322 322 322
310 314 311 306 314 312 312 308 306 310 311 311 311 311 311 311 312 312 311 311 311 311 312 312 315 314 312 311 312 315 316 313 317 313 314 314 315 317 320 320 321 322 321 321 321
311 311 309 308 316 314 310 308 309 311 311 310 310 310 311 311 314 314 312 311 311 311 313 313 314 315 312 314 314 315 316 313 315 317 321 320 318 319 321 322 321 320 319 320 319
310 313 311 310 311 310 312 311 310 309 310 310 310 310 311 312 312 313 312 311 311 311 311 312 314 314 317 313 314 316 315 313 314 317 317 314 315 319 318 319 318 318 318 319 318
311 311 310 311 311 311 312 312 309 310 310 310 311 310 310 311 312 312 312 312 312 312 312 313 317 314 313 312 311 311 311 311 313 313 314 314 314 315 317 318 318 317 317 316 318
309 309 308 308 310 310 310 311 309 309 309 309 311 310 311 310 310 312 312 314 314 314 314 314 317 314 313 312 311 311 311 311 311 312 312 313 313 313 314 315 315 315 316 316 317
304 304 305 307 310 310 311 311 310 310 308 309 309 310 311 311 310 310 312 313 313 315 316 315 316 318 317 314 315 314 312 311 312 312 312 311 312 313 313 314 315 315 316 316 318
Wind_Speed
16 17 17 17 18 17 17 16 15 15 15 16 16 17 18 18 19 18 13 5 6 9 13 15 15 15 17 21 22 19 17 19 25 22 19 12 19 21 16 17 15 9 14 6 5
17 17 18 18 18 17 16 14 14 15 16 17 17 17 17 18 19 13 5 3 5 8 9 15 16 16 15 18 20 22 18 27 23 19 16 12 16 19 18 15 18 16 1 2 8
18 18 18 18 18 17 14 13 14 16 17 17 15 14 15 14 16 7 4 8 11 11 14 12 16 18 23 21 23 26 28 26 24 22 19 16 20 18 21 17 19 17 15 10 3
19 19 19 19 18 16 13 13 15 17 16 13 13 13 12 10 1 7 6 8 10 9 12 13 13 18 23 26 25 28 33 28 28 28 21 17 19 22 24 22 19 17 17 15 7
20 20 20 19 18 15 13 13 15 15 13 13 13 14 9 7 9 3 8 9 10 7 8 11 14 15 24 25 26 33 31 29 29 26 24 25 23 25 24 25 23 21 11 12 11
21 21 21 20 17 14 12 12 15 15 14 13 13 7 9 4 4 6 8 9 6 11 10 8 12 15 21 24 27 28 29 32 30 29 28 27 29 19 29 24 26 25 22 18 19
22 22 22 20 16 13 12 14 17 17 13 10 10 5 11 8 4 7 7 8 6 7 9 12 10 15 12 17 25 26 30 28 29 30 33 28 27 30 31 26 26 26 22 21 23
23 23 23 20 16 14 14 18 17 11 7 6 6 7 5 2 5 8 10 9 4 7 11 13 14 17 21 21 26 22 22 26 34 29 29 24 36 37 29 26 29 29 26 23 25
26 28 25 21 15 15 15 15 8 2 3 4 4 7 3 3 7 13 10 10 13 13 7 11 15 15 15 17 19 22 25 30 31 30 29 29 36 33 32 29 27 29 27 25 26
28 28 27 21 14 14 16 12 7 2 0 6 10 7 5 6 12 14 7 11 13 13 14 15 13 13 14 13 20 23 28 29 30 28 28 30 36 33 29 27 26 31 25 26 26
31 29 28 21 13 10 17 8 5 7 11 11 10 8 7 10 11 8 5 10 10 11 14 9 14 13 17 16 20 23 27 33 30 25 29 29 31 35 30 26 28 26 25 28 25
32 30 29 22 10 6 10 6 6 7 9 12 9 8 7 7 8 9 6 13 10 14 16 15 16 16 18 16 18 22 26 29 28 30 26 25 29 32 26 29 28 28 28 24 21
33 32 28 15 5 5 7 5 6 8 7 1 7 7 6 5 11 14 8 11 13 17 16 16 19 18 17 17 18 19 21 24 28 25 26 27 29 31 31 28 24 27 28 28 27
35 34 21 3 3 3 2 6 9 5 6 9 6 3 7 8 16 4 8 8 14 18 17 17 18 21 16 19 19 21 20 23 22 23 22 28 23 26 29 28 26 27 25 23 21
36 27 14 7 8 4 7 9 8 5 4 4 3 5 7 9 10 3 4 13 16 19 16 19 20 20 20 21 19 22 19 22 24 23 26 30 22 25 21 27 26 26 26 26 27
34 16 3 2 4 5 7 7 5 7 1 3 2 5 10 12 6 9 11 14 18 18 17 20 14 19 16 23 19 22 21 26 25 21 21 29 27 25 23 21 15 17 19 20 21
31 6 3 3 6 6 8 8 6 6 5 1 8 11 14 11 11 4 13 13 9 12 14 19 16 5 14 14 15 17 22 15 17 17 20 27 27 22 22 25 29 16 23 18 9
20 1 3 4 6 7 9 9 10 5 8 10 10 17 15 6 8 7 13 13 9 7 12 12 17 2 6 12 15 26 20 16 19 17 20 27 28 22 29 25 7 6 3 8 9
11 3 8 2 5 8 9 8 2 9 8 10 15 11 9 6 9 12 11 13 5 10 9 13 13 21 23 7 8 15 19 22 21 26 17 15 27 29 24 20 22 19 14 11 5
14 8 3 4 5 9 8 9 7 3 8 10 14 6 13 15 13 12 13 7 8 9 9 13 21 19 20 10 18 18 14 13 14 20 19 20 22 19 30 24 18 15 8 4 3
7 5 7 4 6 7 4 7 7 6 8 7 12 15 15 14 14 16 16 15 6 16 14 18 10 20 19 14 15 8 18 12 14 8 9 13 14 15 26 29 18 13 8 4 5
8 4 5 6 5 3 6 6 3 7 4 7 8 11 10 12 15 16 18 11 16 12 18 16 7 15 21 23 6 13 16 9 12 15 17 16 16 24 31 9 31 13 6 2 7
7 5 4 3 3 6 8 10 3 8 8 6 7 12 13 14 9 10 17 14 15 14 6 9 5 12 15 4 11 10 18 9 7 12 19 12 13 11 10 16 14 7 4 3 11
5 4 1 1 1 6 10 9 7 2 9 7 9 15 11 13 14 10 17 10 13 16 17 11 14 14 15 21 6 7 16 13 12 6 21 19 19 13 27 14 10 3 6 9 12
4 3 3 4 6 11 11 11 11 10 2 9 7 5 10 11 19 19 13 22 19 18 12 5 14 18 21 23 20 19 17 16 17 19 20 21 19 18 13 23 20 10 10 13 11
5 5 6 10 8 9 6 7 8 9 11 15 15 13 15 13 15 25 22 20 11 14 8 11 14 16 20 21 21 22 20 18 20 21 25 22 24 21 17 20 18 13 14 11 11
4 3 4 8 6 8 6 6 10 14 10 9 8 15 18 18 16 19 22 22 17 12 16 9 11 13 14 10 16 15 16 16 16 18 18 21 22 21 17 15 13 13 13 12 10
Wind_Direction
346 343 340 339 337 336 332 329 327 327 327 326 322 320 321 321 322 300 250 1 324 317 286 276 256 248 225 241 235 234 249 249 252 253 253 240 248 246 255 257 282 245 249 30 102
344 341 338 337 336 334 334 335 333 331 327 320 318 320 322 323 314 273 59 68 26 350 289 252 245 230 231 230 230 228 239 241 253 265 280 267 264 265 241 225 238 215 194 205 178
341 338 336 335 336 335 337 339 336 332 322 314 313 320 322 323 278 89 100 317 309 298 287 271 265 258 233 235 228 230 241 248 248 246 256 258 263 267 266 240 218 228 190 196 145
340 337 335 335 334 333 334 336 335 338 337 338 333 327 327 294 360 74 314 322 322 293 273 259 243 242 242 237 234 241 242 244 255 273 274 245 257 264 267 258 255 231 215 176 178
342 337 334 333 331 329 328 324 325 328 332 333 332 330 308 217 52 40 332 325 306 298 275 268 260 251 247 246 246 240 248 248 250 250 254 267 245 255 256 256 264 259 244 212 233
343 338 335 333 331 327 323 316 313 316 315 315 324 338 267 247 350 339 326 316 295 312 316 279 271 269 273 263 250 256 252 251 253 253 248 242 249 252 253 256 256 248 251 243 238
343 339 336 335 333 328 324 318 310 304 301 299 312 288 269 57 321 320 307 326 315 304 291 304 301 269 273 256 251 263 265 267 261 245 248 251 248 237 248 252 248 253 244 244 251
344 341 337 333 331 329 326 326 315 298 283 282 297 264 289 76 343 340 323 319 306 285 275 281 285 279 267 265 275 280 261 250 245 247 248 240 250 247 243 244 246 247 250 240 237
345 342 338 335 331 329 327 335 337 328 253 247 241 244 166 195 345 336 325 322 315 301 282 273 278 276 265 248 254 247 250 245 253 242 240 237 248 249 252 251 247 240 241 242 243
344 341 337 334 331 328 324 312 286 217 112 234 260 249 211 353 338 315 308 316 306 304 289 241 262 253 243 237 248 253 245 248 255 257 234 236 241 246 248 250 253 257 251 235 237
345 338 336 330 327 333 329 268 225 201 232 297 317 290 293 330 315 315 315 298 279 276 275 285 270 255 278 281 272 274 273 277 274 264 244 259 241 244 240 238 252 258 239 245 245
344 338 332 328 318 311 300 1 39 334 299 281 246 263 273 306 296 324 289 307 302 297 300 277 252 257 260 275 289 283 278 271 271 268 273 265 256 260 248 239 234 243 250 254 243
350 337 331 329 301 264 313 26 334 326 264 117 219 261 279 254 295 297 296 298 290 298 292 291 291 298 287 265 261 269 268 275 279 284 267 260 262 266 259 249 245 243 246 250 249
351 343 333 341 285 334 197 342 321 320 270 132 200 181 245 286 271 302 284 285 288 292 296 291 289 282 281 272 268 271 273 277 270 264 260 251 259 246 245 249 243 246 242 246 252
349 342 341 207 326 293 355 325 321 238 262 119 149 44 256 266 302 148 231 274 282 294 286 290 290 280 266 279 284 282 286 282 275 264 256 256 254 251 244 238 236 237 243 242 240
348 344 32 82 239 352 327 330 249 234 45 173 269 270 297 302 279 266 276 270 262 260 274 278 342 285 281 305 288 292 284 275 267 259 249 245 246 245 240 251 253 256 256 247 244
344 335 221 305 348 325 313 254 244 294 123 46 329 314 310 293 307 301 310 299 303 310 310 314 285 263 272 309 284 268 264 262 251 242 251 246 247 241 250 249 255 272 245 233 236
342 282 256 278 312 317 284 255 271 345 324 352 318 302 270 352 312 285 293 297 327 310 309 306 309 21 306 288 310 291 262 257 257 258 251 230 246 247 235 243 194 273 328 261 225
341 233 230 164 308 309 274 271 292 348 355 326 311 306 326 307 315 305 303 306 323 319 305 304 295 311 301 297 295 309 245 251 261 264 273 272 283 232 250 214 242 249 238 214 238
327 268 145 324 294 285 261 285 294 5 311 310 300 312 320 320 331 317 315 330 307 326 317 306 295 297 285 261 260 235 259 256 248 256 274 260 248 242 217 238 221 226 160 172 246
286 270 74 343 284 243 273 297 329 346 316 311 321 306 306 320 307 308 305 314 347 331 326 313 290 288 295 260 276 243 233 223 273 277 264 290 290 350 200 201 216 154 158 113 341
312 275 55 345 264 280 266 1 332 280 265 271 291 301 294 320 309 298 299 321 328 326 309 308 291 287 286 289 217 238 257 236 243 247 255 254 276 296 289 200 188 123 144 64 334
319 291 101 317 309 327 313 301 248 294 308 301 280 299 300 292 296 287 305 312 311 311 325 341 293 308 290 43 12 337 308 241 290 288 266 285 269 297 111 116 126 141 92 329 342
302 320 64 111 85 311 330 308 292 174 287 285 282 285 301 295 282 281 292 317 319 308 299 278 271 261 275 293 180 222 253 286 238 253 267 248 256 266 292 134 152 166 352 333 315
325 10 5 313 328 323 296 295 288 296 289 298 290 269 287 304 311 288 306 313 308 296 282 239 264 274 279 285 293 289 279 258 255 264 272 289 296 268 264 302 315 350 326 301 306
339 337 349 289 290 283 289 286 310 301 320 301 286 308 307 280 274 286 295 294 300 302 294 294 274 274 283 290 287 281 272 253 257 266 270 261 270 279 239 257 287 292 285 294 308
5 315 326 293 281 284 284 315 319 328 300 283 297 282 291 296 296 280 278 284 274 254 285 286 280 283 266 314 319 293 266 270 274 261 275 263 273 282 278 272 278 281 278 285 287